Wind_Speed
53 57 58 57 59 57 55 58 60 62 58 51 56 67 68 64 63 62 61 65 67 67 67 67 65 65 60 60 60 58 49 49 46 45 42 41 41 43 46 47 48 48 44 44
57 58 53 56 52 54 54 56 61 62 54 35 37 58 62 55 67 64 60 61 61 62 50 61 67 68 66 63 64 62 55 53 49 49 47 46 45 47 48 50 49 47 46 43
48 47 48 50 47 47 51 52 56 57 55 48 36 46 42 45 46 65 64 59 58 54 50 55 57 63 62 63 63 65 60 56 51 49 50 48 49 50 49 49 43 44 46 45
41 38 36 39 36 33 49 50 49 47 40 48 46 47 43 41 53 66 65 57 56 52 53 52 54 55 55 57 55 56 57 47 43 48 47 48 45 47 50 54 46 43 49 48
35 38 40 44 35 43 42 40 44 37 41 40 51 45 44 45 58 58 60 58 55 53 50 50 51 54 54 48 46 51 52 49 53 48 46 44 48 41 46 48 49 49 46 45
40 40 35 34 37 47 40 36 44 48 41 46 44 50 55 40 33 45 58 52 55 56 50 47 48 49 53 52 50 46 49 48 45 42 46 43 35 35 38 43 44 43 42 44
36 31 34 34 40 39 36 42 39 36 46 48 45 50 58 39 38 40 43 48 55 56 55 51 49 48 49 49 43 40 42 41 42 40 42 41 46 44 40 42 42 43 44 43
34 26 31 32 33 38 44 46 43 43 49 44 44 49 45 56 53 33 28 32 44 54 48 48 49 48 47 48 44 40 40 44 42 42 41 41 43 42 43 43 42 42 41 41
34 32 31 36 36 38 39 48 53 54 29 31 32 36 28 38 38 43 36 38 36 48 52 48 44 46 47 48 47 42 42 40 41 41 40 42 43 44 43 42 43 41 42 41
32 33 28 28 44 37 39 41 38 41 35 40 32 28 22 26 27 39 46 45 43 42 43 46 44 46 47 44 45 44 38 41 42 41 41 42 42 41 42 44 42 42 41 38
31 26 22 26 26 23 37 43 45 44 35 42 36 29 29 26 38 34 39 46 51 47 48 46 38 36 39 44 48 43 42 40 39 40 40 40 43 44 44 42 41 39 36 32
31 16 22 26 27 11 28 38 30 32 34 40 34 35 38 40 45 39 44 42 42 46 49 45 42 43 47 47 46 35 34 38 39 40 41 42 42 42 41 39 35 32 29 29
27 25 15 16 16 10 36 29 35 35 33 40 34 22 20 44 41 46 43 33 35 39 39 43 40 38 29 31 32 39 40 41 42 42 42 43 43 38 36 31 27 27 27 28
29 28 20 17 18 24 27 30 31 30 30 26 43 28 30 23 25 24 23 23 23 31 39 40 40 38 40 40 42 43 42 42 42 41 43 41 36 32 28 27 25 25 26 27
27 25 20 19 21 23 25 32 33 24 37 33 36 41 43 39 40 37 40 31 26 31 39 39 41 43 43 43 44 43 42 41 40 40 37 34 31 28 28 25 24 25 27 29
25 19 19 15 25 26 29 29 31 35 35 36 27 45 27 26 21 47 33 32 29 32 38 43 46 46 47 45 43 43 40 38 37 35 34 32 28 28 26 26 26 28 29 29
13 13 17 14 26 25 30 25 24 26 25 22 25 18 28 29 33 29 23 26 28 36 38 44 53 50 45 42 39 38 35 35 35 35 33 31 31 29 27 28 29 30 30 32
15 15 14 10 19 14 16 20 22 20 16 16 29 22 16 12 19 22 27 28 34 39 39 43 40 42 39 36 33 32 34 35 35 34 33 33 33 32 30 29 30 33 32 33
15 21 17 4 17 19 26 29 27 21 17 12 20 16 21 13 13 26 26 29 35 40 32 18 24 34 33 30 31 33 35 36 38 38 38 39 37 32 32 31 32 33 32 32
7 8 5 7 5 28 27 21 16 19 15 19 26 17 31 2 12 16 19 24 27 33 35 35 36 35 36 39 41 41 41 40 39 41 43 45 36 31 35 33 34 34 29 30
8 13 10 11 15 21 22 22 21 19 25 30 20 23 16 15 21 20 20 22 26 27 30 34 35 34 36 36 39 41 42 42 43 44 45 35 29 29 25 18 21 22 26 26
6 9 9 11 14 6 20 14 17 19 28 18 23 17 26 19 19 17 22 24 26 28 31 31 33 34 36 35 40 42 42 37 41 38 28 21 24 20 26 21 21 21 23 26
5 6 5 7 8 8 10 12 11 13 26 25 26 27 23 23 19 15 13 14 24 26 30 34 31 29 21 22 27 31 38 37 40 35 29 22 23 20 20 18 16 20 22 25
3 6 8 8 10 9 12 12 10 9 19 9 21 23 26 24 21 16 18 16 14 16 33 38 23 27 27 30 32 32 28 31 30 34 29 31 21 20 19 17 20 21 21 24
5 7 7 9 13 13 12 12 13 14 9 7 11 18 24 21 18 18 18 19 20 21 35 33 27 30 22 17 16 19 31 37 29 17 19 21 20 17 17 20 20 20 24 22
13 13 11 9 11 12 12 12 18 13 8 12 18 20 21 18 18 19 22 21 14 21 21 27 19 14 14 14 13 13 20 22 18 19 20 18 15 16 16 17 18 22 22 19
Wind_Direction
258 254 258 258 255 255 254 251 249 245 249 252 253 248 245 243 242 238 241 242 239 239 236 239 238 242 239 246 251 253 252 255 252 252 252 253 255 259 262 265 270 274 277 279
256 253 252 253 253 251 248 246 244 245 238 221 253 250 247 249 244 240 237 241 241 241 238 238 239 242 240 241 247 250 250 252 254 254 255 255 255 258 260 263 268 274 276 281
263 258 252 252 250 250 248 247 245 246 244 228 232 234 234 235 244 241 234 239 241 240 240 240 243 241 244 241 243 248 249 251 252 256 256 254 258 258 262 266 269 274 283 284
258 256 255 249 243 253 255 246 246 248 243 235 219 234 231 232 229 238 237 234 238 238 234 238 242 247 248 246 243 249 249 249 247 247 248 252 252 255 263 261 271 274 276 279
249 236 235 241 249 237 240 251 254 237 250 238 226 238 234 240 243 242 240 236 237 235 234 234 236 244 245 249 245 244 249 252 254 251 242 250 257 258 259 262 269 273 273 274
258 253 237 242 243 234 249 239 240 254 239 241 237 230 229 224 235 247 238 237 236 237 232 233 235 236 244 243 242 242 244 247 251 256 254 252 249 254 262 264 265 268 272 271
258 252 260 249 245 227 243 227 240 227 237 238 238 232 226 225 225 235 239 242 235 237 235 234 235 236 239 247 245 240 238 241 242 242 251 250 250 254 256 257 260 263 268 272
269 254 251 237 248 248 234 241 241 243 244 246 244 237 238 237 239 223 233 231 241 238 236 235 237 239 239 242 243 238 236 238 239 241 244 246 249 253 255 258 260 263 265 269
257 252 245 233 231 245 230 238 233 229 230 236 238 248 250 236 230 201 208 215 227 235 236 234 233 236 235 237 237 234 234 235 238 239 242 243 246 250 256 258 260 265 267 271
243 264 256 229 234 233 237 239 239 219 213 226 222 222 229 219 220 215 214 213 219 234 238 238 236 235 236 235 238 238 236 231 233 236 238 242 247 253 254 256 262 265 271 274
241 284 269 252 243 233 230 233 225 206 208 214 220 211 212 214 215 223 212 222 221 231 231 236 232 230 231 232 239 241 238 232 237 237 240 241 243 244 250 256 260 267 272 278
235 268 265 250 257 229 217 204 207 228 196 204 229 201 195 204 212 214 219 221 231 229 234 235 224 227 237 244 243 243 237 235 235 236 238 241 244 246 251 256 263 269 277 286
243 253 264 240 242 205 187 205 225 214 200 212 216 246 223 189 197 207 201 207 224 227 220 223 228 231 235 229 221 226 225 227 229 232 236 239 242 248 252 261 269 279 281 284
241 239 257 216 231 217 213 191 206 211 211 201 220 213 231 233 237 180 177 232 242 222 214 217 218 218 219 222 220 220 219 220 224 229 233 237 243 250 257 264 270 273 277 282
223 230 241 238 252 214 223 209 222 209 220 209 204 215 220 229 228 227 233 239 231 224 210 205 211 215 221 220 218 214 213 219 225 229 234 240 244 251 259 261 262 267 271 282
233 224 240 240 232 237 220 214 219 214 221 217 219 207 252 238 227 231 244 233 223 211 214 210 208 209 209 214 215 210 211 216 221 230 236 240 246 253 252 255 257 264 273 280
222 241 246 243 229 238 219 202 195 198 201 208 231 227 230 219 246 247 230 207 192 205 208 209 205 201 206 206 203 201 207 216 222 229 234 242 246 249 252 263 258 268 275 278
230 228 216 188 217 184 163 167 178 185 199 198 212 208 246 280 242 203 198 191 190 200 170 176 200 196 198 193 198 203 210 219 227 233 239 243 248 249 258 260 262 266 272 279
262 215 256 336 193 177 179 172 173 186 176 186 211 224 273 193 200 192 188 190 192 211 229 195 196 196 197 197 207 213 218 223 228 233 238 242 247 250 253 261 261 264 269 277
203 221 223 124 60 144 158 162 168 171 190 218 215 234 192 102 194 189 196 191 199 207 207 213 211 203 203 209 214 217 219 226 232 238 241 245 247 251 261 266 252 264 271 278
138 147 150 155 137 136 160 169 185 189 200 207 229 227 253 245 181 186 197 199 203 207 213 213 216 215 215 219 221 221 227 230 234 240 245 248 238 252 247 246 254 265 269 276
134 138 158 166 166 160 173 188 201 200 218 182 216 225 218 232 193 185 197 204 211 210 214 212 214 219 226 230 234 234 237 241 243 243 226 210 226 231 251 254 254 263 272 276
183 181 190 193 179 200 203 192 210 223 201 206 207 210 192 197 174 173 175 196 218 232 224 205 215 217 208 221 229 240 232 232 240 230 225 212 238 239 238 243 261 269 273 286
225 240 238 206 198 209 178 193 210 217 203 214 195 171 165 188 171 178 164 161 171 197 211 207 214 203 220 239 244 245 232 240 227 239 248 223 226 235 234 254 269 273 287 283
208 180 173 174 193 202 212 208 196 201 216 167 194 161 177 181 183 188 189 174 163 176 197 209 193 194 194 201 205 214 226 235 215 198 202 212 220 234 251 261 273 283 284 278
130 136 145 171 185 176 176 160 187 177 179 140 179 168 174 186 179 174 183 172 185 164 158 174 179 182 193 220 215 202 195 188 189 205 208 215 227 241 261 273 275 284 280 268
Height
5692 5690 5695 5700 5696 5703 5703 5705 5709 5718 5724 5727 5729 5736 5742 5745 5748 5755 5762 5766 5774 5784 5798 5804 5811 5814 5824 5825 5827 5832 5840 5842 5849 5854 5858 5862 5864 5865 5865 5866 5866 5867 5870 5869
5670 5672 5684 5678 5680 5684 5686 5689 5693 5701 5708 5715 5718 5720 5728 5729 5733 5744 5752 5755 5762 5777 5785 5792 5799 5801 5809 5817 5819 5822 5830 5833 5840 5845 5850 5853 5854 5855 5856 5857 5858 5859 5859 5862
5652 5662 5664 5665 5668 5669 5672 5675 5682 5687 5695 5701 5704 5704 5712 5718 5722 5727 5737 5746 5753 5765 5774 5781 5785 5790 5796 5806 5811 5812 5820 5826 5831 5836 5838 5842 5844 5845 5848 5849 5850 5851 5852 5852
5639 5646 5650 5654 5657 5660 5660 5667 5671 5673 5679 5682 5692 5689 5698 5705 5709 5712 5725 5734 5744 5756 5762 5769 5775 5778 5784 5790 5803 5805 5809 5814 5820 5824 5829 5833 5835 5837 5839 5841 5842 5845 5843 5843
5631 5630 5637 5640 5642 5650 5650 5659 5658 5661 5664 5670 5674 5679 5686 5694 5695 5703 5714 5726 5735 5741 5751 5758 5764 5769 5773 5781 5791 5797 5801 5806 5809 5812 5818 5824 5826 5830 5831 5832 5834 5834 5835 5833
5619 5623 5624 5627 5631 5634 5637 5641 5645 5649 5653 5652 5662 5669 5673 5679 5690 5696 5704 5713 5719 5728 5739 5747 5753 5759 5760 5770 5779 5788 5791 5798 5802 5805 5808 5815 5817 5820 5821 5823 5824 5825 5825 5824
5607 5610 5615 5619 5620 5626 5629 5631 5628 5630 5636 5639 5653 5655 5661 5672 5682 5689 5696 5700 5708 5716 5726 5736 5742 5748 5754 5757 5768 5777 5781 5787 5792 5796 5800 5804 5807 5809 5813 5813 5815 5817 5817 5817
5592 5594 5604 5609 5609 5613 5615 5619 5618 5622 5627 5633 5640 5639 5647 5666 5672 5683 5688 5694 5697 5706 5716 5724 5732 5739 5745 5750 5757 5767 5774 5776 5783 5788 5793 5796 5797 5801 5802 5804 5807 5809 5809 5808
5583 5586 5592 5594 5592 5598 5605 5603 5613 5617 5625 5630 5635 5637 5643 5652 5660 5667 5676 5685 5690 5695 5703 5713 5721 5727 5734 5739 5746 5758 5764 5769 5774 5779 5785 5787 5789 5791 5793 5797 5797 5798 5799 5800
5575 5574 5580 5586 5585 5590 5592 5595 5593 5602 5612 5618 5625 5627 5634 5641 5650 5659 5667 5676 5682 5689 5695 5701 5711 5718 5724 5732 5737 5746 5755 5760 5764 5769 5774 5778 5781 5784 5786 5786 5787 5789 5791 5791
5568 5569 5571 5572 5574 5579 5579 5580 5591 5595 5604 5611 5617 5623 5623 5635 5644 5651 5658 5664 5673 5681 5682 5695 5702 5707 5712 5719 5725 5737 5743 5749 5754 5760 5765 5769 5771 5773 5775 5778 5780 5782 5782 5783
5560 5562 5562 5567 5566 5567 5570 5584 5589 5590 5599 5605 5612 5612 5617 5623 5629 5641 5647 5655 5662 5668 5681 5688 5692 5696 5699 5710 5720 5729 5736 5740 5745 5749 5753 5757 5761 5765 5769 5771 5773 5775 5775 5774
5557 5560 5560 5566 5567 5569 5573 5580 5574 5591 5597 5597 5604 5609 5611 5604 5624 5622 5632 5642 5651 5663 5670 5676 5684 5690 5697 5704 5712 5718 5723 5728 5734 5740 5745 5750 5754 5758 5761 5763 5764 5765 5767 5767
5553 5555 5557 5562 5558 5563 5568 5572 5578 5584 5592 5599 5600 5607 5611 5619 5619 5618 5627 5640 5647 5653 5660 5668 5675 5682 5688 5696 5701 5706 5712 5719 5726 5732 5737 5742 5747 5750 5753 5755 5757 5759 5760 5760
5550 5554 5556 5559 5560 5562 5566 5571 5575 5574 5587 5594 5603 5605 5601 5609 5619 5621 5627 5634 5640 5647 5653 5658 5663 5671 5680 5685 5690 5696 5705 5712 5720 5726 5732 5736 5740 5743 5746 5749 5751 5753 5753 5752
5548 5554 5556 5559 5559 5562 5564 5568 5572 5578 5586 5589 5596 5600 5600 5607 5613 5619 5625 5629 5634 5640 5646 5650 5654 5662 5668 5675 5683 5691 5700 5708 5715 5720 5725 5729 5733 5737 5740 5743 5744 5745 5746 5746
5551 5553 5555 5558 5557 5558 5562 5568 5573 5579 5587 5592 5593 5595 5600 5604 5608 5615 5621 5625 5629 5633 5633 5631 5643 5654 5662 5671 5681 5688 5696 5703 5709 5714 5719 5723 5727 5731 5734 5737 5738 5738 5739 5739
5550 5552 5553 5553 5554 5559 5566 5571 5578 5582 5587 5589 5587 5597 5599 5600 5604 5608 5615 5622 5626 5612 5619 5626 5641 5652 5661 5668 5677 5685 5691 5697 5703 5709 5714 5718 5721 5725 5728 5731 5732 5732 5732 5733
5551 5551 5551 5551 5552 5554 5563 5565 5570 5578 5586 5589 5591 5594 5593 5598 5606 5609 5614 5619 5627 5626 5628 5636 5647 5655 5661 5668 5676 5683 5689 5694 5698 5703 5707 5712 5716 5720 5722 5724 5725 5725 5725 5726
5551 5549 5548 5549 5544 5556 5565 5573 5578 5583 5589 5584 5586 5593 5599 5600 5608 5610 5614 5620 5626 5630 5635 5640 5647 5653 5659 5664 5671 5677 5683 5688 5693 5698 5702 5705 5710 5714 5715 5717 5718 5719 5720 5719
5551 5551 5552 5555 5556 5560 5566 5572 5576 5581 5586 5584 5585 5593 5594 5602 5604 5609 5613 5618 5623 5628 5634 5640 5646 5652 5657 5663 5668 5673 5678 5683 5687 5691 5695 5699 5704 5708 5708 5709 5712 5713 5713 5712
5555 5556 5557 5559 5563 5565 5570 5575 5577 5580 5576 5581 5588 5592 5595 5602 5607 5609 5613 5617 5621 5626 5631 5636 5642 5648 5653 5658 5664 5669 5673 5676 5681 5686 5692 5694 5698 5701 5704 5705 5706 5707 5707 5706
5558 5560 5561 5564 5566 5568 5572 5574 5574 5575 5579 5585 5587 5591 5596 5603 5604 5607 5611 5615 5618 5621 5626 5632 5638 5643 5651 5655 5659 5663 5666 5671 5675 5681 5687 5690 5694 5696 5699 5701 5701 5701 5700 5698
5558 5559 5561 5564 5566 5567 5571 5574 5576 5576 5579 5583 5580 5590 5595 5601 5602 5606 5610 5612 5614 5616 5622 5629 5637 5642 5647 5651 5654 5657 5659 5664 5668 5675 5678 5683 5689 5692 5694 5695 5696 5694 5692 5692
5560 5562 5563 5564 5565 5568 5571 5575 5576 5577 5580 5582 5584 5589 5596 5599 5604 5608 5611 5613 5615 5618 5624 5630 5636 5640 5645 5649 5651 5652 5655 5660 5665 5670 5676 5681 5684 5686 5688 5689 5688 5687 5686 5685
5563 5565 5565 5564 5566 5569 5572 5574 5576 5579 5578 5584 5588 5591 5598 5602 5605 5607 5611 5615 5618 5621 5626 5630 5634 5640 5644 5647 5649 5651 5653 5656 5662 5668 5673 5676 5679 5681 5682 5682 5682 5681 5680 5679